ATLAS 5 CENTAUR DEB, 46607

Orbit data source: Space-Track

ATLAS 5 CENTAUR DEB, 46607 is space debris in HEO originally from a launch on Wed, 17 Oct 2018 UTC launched from the Air Force Eastern Test Range (AFETR). Debris objects in space refer to the collection of defunct objects orbiting the Earth. Examples of debris include non-operational satellites, rocket bodies, and fragments generated from explosions, collisions, or faulty payload assembly.

Loading next visibility...
Identifier
46607, 2018-079CF
Orbit
HEO
Country
Flag of USUS
Related business
Flag of USUnited Launch Alliance/Lockheed Martin (US)
Manufacturer
ULA Decatur
Mission
Spacecraft
Bus & Motor
Unknown
Mass
Unknown
Launch date (UTC)
2018-10-17 (8 years ago)
Launch vehicle
Unknown
Launch site
Air Force Eastern Test Range (AFETR)
Object type
Payload
Rocket body
Debris
Shape & HBR
Unknown shape, 1.1 m
Radar Cross Section
RCS unknown

Expand to show TLE details & history
Last TLE update: 1 month ago

TLE from 1 month ago
0 ATLAS 5 CENTAUR DEB
1 46607U 18079CF  26138.08254157 -.00000132  00000-0  00000-0 0  9997
2 46607  13.1438 351.3608 4608254  64.3037 335.8663  2.05143962 49833
Epoch: 2026-05-18T01:58Z
TLE epoch observation values (Epoch: 2026-05-18T01:58:51.591Z)
Latitude
-0.00003°
Longitude
85.83107°
Altitude
10,769.733 km
Speed
5.591 km/s
True Right ascension
23h 25m 17s
True Declination
0° 00' 00"
Sunlit
Object was in daylight at epoch
Visualization orbit readout
Latitude
Unknown
Longitude
Unknown
Altitude
Unknown
Speed
Unknown
Apparent Right ascension
Unknown
Apparent Declination
Unknown
Sunlit
N/A
Visualization observer readout
Local Sidereal Time
21:36:10
Azimuth
Unknown
Elevation
Unknown
Doppler factor
Unknown
Orbital elements
Apogee altitude
31,845.452 km
Perigee altitude
7,729.77 km
Semi-major axis
26,165.748 km
Eccentricity
0.46083
Inclination
13.1438°
RAAN
351.3608°
Arg. of periapsis
64.3037°
True anomaly
295.83628°
Mean anomaly
335.8663°
Eccentric anomaly
318.30303°
Mean motion
0.51279 °/min
Orbital period
702.04 mins
BSTAR
0
Loading maneuver chart data...
Computing Atmospheric mass density...

Documentation

Showing up to 5 results
|